| time (UTC) | temp F | wind direction | speed MPH | gust MPH | rain 1hr in | rain 24hr in | rain mn in | humidity % | barometer mb |
| 20260505065259 | 60 | 301 | 1.0 | 2.0 | 0.00 | 0.00 | 0.00 | 71 | 989.1 |
| 20260505064602 | 60 | 301 | 2.0 | 3.0 | 0.00 | 0.00 | 0.00 | 71 | 989.2 |
| 20260505063153 | 60 | 301 | 0.0 | 1.0 | 0.00 | 0.00 | 0.00 | 70 | 989.2 |
| 20260505063003 | 60 | 301 | 0.0 | 2.0 | 0.00 | 0.00 | 0.00 | 69 | 989.3 |
| 20260505062129 | 60 | 301 | 0.0 | 0.0 | 0.00 | 0.00 | 0.00 | 69 | 989.3 |
| 20260505061630 | 60 | 301 | 0.0 | 0.0 | 0.00 | 0.00 | 0.00 | 68 | 989.4 |
| 20260505061106 | 60 | 301 | 0.0 | 0.0 | 0.00 | 0.00 | 0.00 | 68 | 989.4 |
| 20260505060039 | 60 | 301 | 0.0 | 0.0 | 0.00 | 0.00 | 0.00 | 68 | 989.3 |
| 20260505060003 | 59 | 301 | 0.0 | 2.0 | 0.00 | 0.00 | 0.00 | 68 | 989.4 |
| 20260505055023 | 60 | 301 | 1.0 | 3.0 | 0.00 | 0.00 | 0.00 | 68 | 989.4 |
| 20260505054606 | 59 | 301 | 1.0 | 4.0 | 0.00 | 0.00 | 0.00 | 68 | 989.4 |
| 20260505054024 | 60 | 301 | 1.0 | 3.0 | 0.00 | 0.00 | 0.00 | 68 | 989.4 |
| 20260505053025 | 60 | 311 | 0.0 | 2.0 | 0.00 | 0.00 | 0.00 | 68 | 989.4 |
| 20260505053007 | 60 | 311 | 1.0 | 2.0 | 0.00 | 0.00 | 0.00 | 68 | 989.4 |
| 20260505052041 | 60 | 311 | 1.0 | 2.0 | 0.00 | 0.00 | 0.00 | 68 | 989.3 |
| 20260505051503 | 59 | 303 | 2.0 | 3.0 | 0.00 | 0.00 | 0.00 | 68 | 989.3 |
| 20260505041739 | 59 | 313 | 0.0 | 2.0 | 0.00 | 0.00 | 0.00 | 68 | 989.1 |
| 20260505040719 | 60 | 313 | 0.0 | 2.0 | 0.00 | 0.00 | 0.00 | 66 | 989.1 |
| 20260505040104 | 60 | 313 | 1.0 | 3.0 | 0.00 | 0.00 | 0.00 | 66 | 989.1 |
| 20260505035730 | 61 | 0 | 0.0 | 1.0 | 0.00 | 0.00 | 0.00 | 65 | 989.0 |
| 20260505034751 | 61 | 0 | 0.0 | 1.0 | 0.00 | 0.00 | 0.00 | 63 | 989.1 |
| 20260505034658 | 61 | 5 | 0.0 | 2.0 | 0.00 | 0.00 | 0.00 | 63 | 989.1 |
| 20260505033729 | 62 | 5 | 0.0 | 0.0 | 0.00 | 0.00 | 0.00 | 61 | 989.0 |
| 20260505033005 | 62 | 9 | 0.0 | 2.0 | 0.00 | 0.00 | 0.00 | 60 | 989.1 |
| 20260505032702 | 63 | 9 | 0.0 | 3.0 | 0.00 | 0.00 | 0.00 | 60 | 988.9 |
| 20260505031705 | 63 | 9 | 0.0 | 3.0 | 0.00 | 0.00 | 0.00 | 59 | 989.0 |
| 20260505031602 | 63 | 360 | 0.0 | 2.0 | 0.00 | 0.00 | 0.00 | 59 | 989.0 |
| 20260505030706 | 63 | 5 | 1.0 | 4.0 | 0.00 | 0.00 | 0.00 | 59 | 989.0 |
| 20260505030008 | 63 | 355 | 1.0 | 6.0 | 0.00 | 0.00 | 0.00 | 58 | 989.0 |
| 20260505025709 | 64 | 0 | 2.0 | 9.0 | 0.00 | 0.00 | 0.00 | 58 | 988.9 |
| 20260505024604 | 63 | 5 | 2.0 | 10.0 | 0.00 | 0.00 | 0.00 | 58 | 988.9 |
| 20260505023627 | 63 | 344 | 2.0 | 8.0 | 0.00 | 0.00 | 0.00 | 59 | 988.8 |
| 20260505023003 | 63 | 5 | 3.0 | 9.0 | 0.00 | 0.00 | 0.00 | 58 | 988.9 |
| 20260505022625 | 64 | 5 | 2.0 | 8.0 | 0.00 | 0.00 | 0.00 | 58 | 988.7 |
| 20260505021640 | 64 | 0 | 2.0 | 5.0 | 0.00 | 0.00 | 0.00 | 57 | 988.9 |
| 20260505021504 | 63 | 329 | 2.0 | 6.0 | 0.00 | 0.00 | 0.00 | 58 | 989.0 |
| 20260505015507 | 64 | 36 | 3.0 | 13.0 | 0.00 | 0.00 | 0.00 | 57 | 989.0 |
| 20260505014610 | 64 | 360 | 5.0 | 14.0 | 0.00 | 0.00 | 0.00 | 56 | 988.9 |
| 20260505014525 | 65 | 30 | 4.0 | 13.0 | 0.00 | 0.00 | 0.00 | 57 | 988.8 |
| 20260505013507 | 65 | 9 | 4.0 | 8.0 | 0.00 | 0.00 | 0.00 | 56 | 989.1 |
| 20260505013004 | 64 | 26 | 5.0 | 9.0 | 0.00 | 0.00 | 0.00 | 56 | 989.1 |
| 20260505012449 | 65 | 0 | 3.0 | 9.0 | 0.00 | 0.00 | 0.00 | 56 | 989.0 |
| 20260505011619 | 64 | 344 | 4.0 | 10.0 | 0.00 | 0.00 | 0.00 | 55 | 989.0 |
| 20260505011432 | 65 | 355 | 2.0 | 9.0 | 0.00 | 0.00 | 0.00 | 55 | 988.9 |
| 20260505010420 | 66 | 14 | 2.0 | 8.0 | 0.00 | 0.00 | 0.00 | 55 | 988.7 |
| 20260505010002 | 65 | 311 | 2.0 | 9.0 | 0.00 | 0.00 | 0.00 | 54 | 988.7 |
| 20260505004506 | 66 | 349 | 3.0 | 8.0 | 0.00 | 0.00 | 0.00 | 53 | 988.5 |
| 20260505004247 | 66 | 344 | 2.0 | 8.0 | 0.00 | 0.00 | 0.00 | 54 | 988.5 |
| 20260505003214 | 67 | 327 | 3.0 | 11.0 | 0.00 | 0.00 | 0.00 | 53 | 988.5 |
| 20260505003002 | 66 | 9 | 5.0 | 9.0 | 0.00 | 0.00 | 0.00 | 53 | 988.5 |
| 20260505002204 | 67 | 355 | 4.0 | 11.0 | 0.00 | 0.00 | 0.00 | 52 | 988.4 |
| 20260505001604 | 67 | 355 | 4.0 | 10.0 | 0.00 | 0.00 | 0.00 | 52 | 988.5 |
| 20260505001159 | 68 | 14 | 4.0 | 10.0 | 0.00 | 0.00 | 0.00 | 51 | 988.3 |
| 20260505000134 | 69 | 5 | 4.0 | 12.0 | 0.00 | 0.00 | 0.00 | 50 | 988.3 |
| 20260504235135 | 70 | 335 | 4.0 | 12.0 | 0.00 | 0.00 | 0.00 | 48 | 988.1 |
| 20260504234503 | 70 | 5 | 4.0 | 9.0 | 0.00 | 0.00 | 0.00 | 47 | 988.2 |
| 20260504234133 | 71 | 5 | 3.0 | 9.0 | 0.00 | 0.00 | 0.00 | 47 | 988.0 |
| 20260504233131 | 72 | 51 | 2.0 | 9.0 | 0.00 | 0.00 | 0.00 | 47 | 988.0 |
| 20260504233105 | 71 | 40 | 3.0 | 11.0 | 0.00 | 0.00 | 0.00 | 47 | 988.0 |
| 20260504232108 | 72 | 42 | 3.0 | 9.0 | 0.00 | 0.00 | 0.00 | 46 | 987.9 |
| 20260504231602 | 72 | 5 | 5.0 | 10.0 | 0.00 | 0.00 | 0.00 | 45 | 988.0 |
| 20260504231048 | 73 | 78 | 3.0 | 9.0 | 0.00 | 0.00 | 0.00 | 46 | 988.0 |
| 20260504230100 | 73 | 32 | 3.0 | 9.0 | 0.00 | 0.00 | 0.00 | 44 | 988.1 |
| 20260504230002 | 72 | 14 | 2.0 | 12.0 | 0.00 | 0.00 | 0.00 | 45 | 988.1 |
| 20260504225108 | 73 | 47 | 3.0 | 10.0 | 0.00 | 0.00 | 0.00 | 44 | 988.0 |
| 20260504224113 | 73 | 74 | 4.0 | 11.0 | 0.00 | 0.00 | 0.00 | 44 | 988.1 |
| 20260504223110 | 74 | 74 | 5.0 | 13.0 | 0.00 | 0.00 | 0.00 | 43 | 988.2 |
| 20260504223002 | 73 | 67 | 6.0 | 13.0 | 0.00 | 0.00 | 0.00 | 43 | 988.3 |
| 20260504222133 | 74 | 67 | 5.0 | 13.0 | 0.00 | 0.00 | 0.00 | 41 | 988.2 |
| 20260504221602 | 74 | 53 | 5.0 | 13.0 | 0.00 | 0.00 | 0.00 | 42 | 988.2 |
| 20260504221147 | 74 | 28 | 5.0 | 12.0 | 0.00 | 0.00 | 0.00 | 42 | 988.1 |
| 20260504220151 | 74 | 58 | 5.0 | 13.0 | 0.00 | 0.00 | 0.00 | 42 | 988.2 |
| 20260504215155 | 75 | 86 | 4.0 | 13.0 | 0.00 | 0.00 | 0.00 | 42 | 988.2 |
| 20260504214504 | 74 | 5 | 3.0 | 13.0 | 0.00 | 0.00 | 0.00 | 45 | 988.3 |
| 20260504214205 | 74 | 55 | 5.0 | 13.0 | 0.00 | 0.00 | 0.00 | 42 | 988.2 |
| 20260504213225 | 75 | 40 | 5.0 | 13.0 | 0.00 | 0.00 | 0.00 | 41 | 988.2 |
| 20260504213112 | 74 | 32 | 7.0 | 14.0 | 0.00 | 0.00 | 0.00 | 41 | 988.3 |
| 20260504212214 | 75 | 63 | 5.0 | 14.0 | 0.00 | 0.00 | 0.00 | 40 | 988.2 |
| 20260504211700 | 74 | 64 | 5.0 | 13.0 | 0.00 | 0.00 | 0.00 | 41 | 988.3 |
| 20260504211202 | 75 | 80 | 6.0 | 14.0 | 0.00 | 0.00 | 0.00 | 41 | 988.2 |
| 20260504210208 | 75 | 60 | 6.0 | 13.0 | 0.00 | 0.00 | 0.00 | 41 | 988.2 |
| 20260504210004 | 74 | 65 | 5.0 | 16.0 | 0.00 | 0.00 | 0.00 | 41 | 988.3 |
| 20260504205144 | 75 | 104 | 5.0 | 13.0 | 0.00 | 0.00 | 0.00 | 43 | 988.3 |
| 20260504204502 | 74 | 59 | 7.0 | 15.0 | 0.00 | 0.00 | 0.00 | 42 | 988.4 |
| 20260504204159 | 74 | 56 | 5.0 | 11.0 | 0.00 | 0.00 | 0.00 | 43 | 988.3 |
| 20260504203220 | 74 | 28 | 5.0 | 12.0 | 0.00 | 0.00 | 0.00 | 42 | 988.4 |
| 20260504203003 | 74 | 54 | 6.0 | 13.0 | 0.00 | 0.00 | 0.00 | 43 | 988.6 |
| 20260504202152 | 74 | 46 | 6.0 | 17.0 | 0.00 | 0.00 | 0.00 | 41 | 988.5 |
| 20260504201602 | 73 | 49 | 7.0 | 18.0 | 0.00 | 0.00 | 0.00 | 40 | 988.7 |
| 20260504201215 | 74 | 65 | 7.0 | 17.0 | 0.00 | 0.00 | 0.00 | 41 | 988.7 |
| 20260504200148 | 74 | 74 | 5.0 | 15.0 | 0.00 | 0.00 | 0.00 | 42 | 988.8 |
| 20260504200006 | 74 | 72 | 6.0 | 14.0 | 0.00 | 0.00 | 0.00 | 42 | 989.0 |
| 20260504195130 | 74 | 107 | 7.0 | 17.0 | 0.00 | 0.00 | 0.00 | 43 | 989.0 |
| 20260504194505 | 73 | 79 | 6.0 | 18.0 | 0.00 | 0.00 | 0.00 | 43 | 989.2 |
| 20260504193005 | 73 | 60 | 8.0 | 19.0 | 0.00 | 0.00 | 0.00 | 43 | 989.3 |
| 20260504193003 | 73 | 105 | 7.0 | 20.0 | 0.00 | 0.00 | 0.00 | 43 | 989.4 |
| 20260504192012 | 73 | 88 | 5.0 | 14.0 | 0.00 | 0.00 | 0.00 | 44 | 989.4 |
| 20260504191603 | 73 | 355 | 5.0 | 13.0 | 0.00 | 0.00 | 0.00 | 45 | 989.5 |
| 20260504190109 | 72 | 69 | 8.0 | 19.0 | 0.00 | 0.00 | 0.00 | 43 | 989.7 |
| 20260504185931 | 73 | 18 | 6.0 | 18.0 | 0.00 | 0.00 | 0.00 | 44 | 989.7 |
| 20260504184602 | 71 | 61 | 9.0 | 17.0 | 0.00 | 0.00 | 0.00 | 45 | 989.9 |
| 20260504183855 | 72 | 96 | 6.0 | 15.0 | 0.00 | 0.00 | 0.00 | 42 | 990.0 |
| 20260504183003 | 72 | 30 | 8.0 | 16.0 | 0.00 | 0.00 | 0.00 | 42 | 990.2 |
| 20260504182848 | 72 | 70 | 5.0 | 15.0 | 0.00 | 0.00 | 0.00 | 43 | 990.1 |
| 20260504181503 | 71 | 299 | 6.0 | 14.0 | 0.00 | 0.00 | 0.00 | 43 | 990.5 |
| 20260504180706 | 71 | 67 | 7.0 | 15.0 | 0.00 | 0.00 | 0.00 | 45 | 990.5 |
| 20260504180141 | 70 | 85 | 9.0 | 16.0 | 0.00 | 0.00 | 0.00 | 44 | 990.7 |
| 20260504175711 | 71 | 51 | 7.0 | 15.0 | 0.00 | 0.00 | 0.00 | 44 | 990.7 |
| 20260504174700 | 71 | 121 | 7.0 | 15.0 | 0.00 | 0.00 | 0.00 | 43 | 990.7 |
| 20260504173640 | 71 | 63 | 6.0 | 15.0 | 0.00 | 0.00 | 0.00 | 46 | 990.7 |
| 20260504173003 | 70 | 61 | 6.0 | 16.0 | 0.00 | 0.00 | 0.00 | 45 | 990.8 |
| 20260504172648 | 70 | 36 | 6.0 | 15.0 | 0.00 | 0.00 | 0.00 | 45 | 990.8 |
| 20260504171605 | 70 | 33 | 8.0 | 13.0 | 0.00 | 0.00 | 0.00 | 45 | 991.1 |
| 20260504170508 | 69 | 74 | 6.0 | 13.0 | 0.00 | 0.00 | 0.00 | 47 | 991.3 |
| 20260504170105 | 69 | 40 | 7.0 | 15.0 | 0.00 | 0.00 | 0.00 | 44 | 991.3 |
| 20260504160401 | 67 | 31 | 6.0 | 15.0 | 0.00 | 0.00 | 0.00 | 46 | 992.0 |
| 20260504160104 | 67 | 130 | 7.0 | 12.0 | 0.00 | 0.00 | 0.00 | 46 | 992.0 |
| 20260504150256 | 65 | 33 | 4.0 | 11.0 | 0.00 | 0.00 | 0.00 | 48 | 992.6 |
| 20260504150103 | 64 | 50 | 4.0 | 12.0 | 0.00 | 0.00 | 0.00 | 51 | 992.6 |
| 20260504141047 | 60 | 53 | 3.0 | 8.0 | 0.00 | 0.00 | 0.00 | 55 | 993.1 |
| 20260504140104 | 58 | 69 | 4.0 | 9.0 | 0.00 | 0.00 | 0.00 | 55 | 993.2 |
| 20260504110507 | 39 | 276 | 0.0 | 2.0 | 0.00 | 0.00 | 0.00 | 90 | 993.5 |
| 20260504100211 | 37 | 275 | 0.0 | 2.0 | 0.00 | 0.00 | 0.00 | 88 | 993.6 |
| 20260504090104 | 37 | 275 | 0.0 | 0.0 | 0.00 | 0.00 | 0.00 | 87 | 993.8 |
| 20260504081942 | 38 | 275 | 1.0 | 2.0 | 0.00 | 0.00 | 0.00 | 87 | 994.0 |
| 20260504081505 | 37 | 275 | 2.0 | 4.0 | 0.00 | 0.00 | 0.00 | 86 | 994.0 |
| 20260504080931 | 38 | 275 | 1.0 | 2.0 | 0.00 | 0.00 | 0.00 | 86 | 994.0 |
| 20260504080104 | 38 | 275 | 2.0 | 3.0 | 0.00 | 0.00 | 0.00 | 86 | 994.0 |